SMART UNITE ELECTRIC COMPANY
SMART UNITE ELECTRIC COMPANY's Shipments Over Time
Supply Ratings
Shipment Reliability and Frequency Volume of Goods
Avg. Shipments per Month: 4.92 Average TEU per month: 11.88
Active Months: 3 Average TEU per Shipment: 2.42
Shipment Frequency Std. Dev.: 9.70
Shipments By Companies
Company Name Shipments
NEWPLUS FURNITURE INTERNATIONAL IN 59 shipments
Shipments By HS Code
HS Code Shipments
841582.0 Air conditioning machines; comprising a motor driven fan and elements for changing the temperature and humidity, including those machines in which the humidity cannot be separately regulated 25 shipments
732290.0 Radiators for central heating, not electrically heated and parts thereof, of iron or steel; air heaters, hot air distributors not electrically heated, with motor fan or blower 15 shipments
847960.0 Machinery and mechanical appliances; having individual functions, n.e.c. in this chapter 9 shipments
845230.0 Sewing machines; other than book-sewing machines of heading no. 8440; furniture, bases and covers specially designed for sewing machines; sewing machine needles 4 shipments
841510.0 Air conditioning machines; comprising a motor driven fan and elements for changing the temperature and humidity, including those machines in which the humidity cannot be separately regulated 3 shipments
842620.0 Derricks, cranes, including cable cranes, mobile lifting frames, straddle carriers and works trucks fitted with a crane 2 shipments
950670.0 Gymnastics, athletics, other sports (including table tennis) or outdoor games equipment, n.e.c. in this chapter, swimming pools and paddling pools 1 shipments
to show market analysis.
Similar Suppliers
to see more.
Latest Shipments
Arrival Date Bill Of Lading Consignee Weight HS Code Description
2026-03-24 COSU6446253630 NEWPLUS FURNITURE INTERNATIONAL IN 4472.0 kg 841582.0 COOLING FAN
2026-03-24 COSU9506304010 NEWPLUS FURNITURE INTERNATIONAL IN 6565.0 kg 732290.0 FAN
2026-03-18 COSU9506210900 NEWPLUS FURNITURE INTERNATIONAL IN 4256.0 kg 841582.0 COOLING FAN
2026-03-18 COSU9506227270 NEWPLUS FURNITURE INTERNATIONAL IN 6448.0 kg 732290.0 FLOOR FAN
2026-03-18 COSU9506228070 NEWPLUS FURNITURE INTERNATIONAL IN 5339.0 kg 841582.0 COOLING FAN
2026-03-18 COSU9506228220 NEWPLUS FURNITURE INTERNATIONAL IN 6720.0 kg 732290.0 FAN
2026-03-18 COSU9506228240 NEWPLUS FURNITURE INTERNATIONAL IN 7389.0 kg 732290.0 FAN
2026-03-17 COSU9505588660 NEWPLUS FURNITURE INTERNATIONAL IN 9225.0 kg 841582.0 COOLING FAN COOLING FAN
2026-03-16 COSU9505672260 NEWPLUS FURNITURE INTERNATIONAL IN 7129.0 kg 842620.0 TOWER FAN
2026-03-16 COSU9505672340 NEWPLUS FURNITURE INTERNATIONAL IN 8938.0 kg 847960.0 AIR CONDITIONER
2026-03-15 COSU9505672430 NEWPLUS FURNITURE INTERNATIONAL IN 13294.0 kg 841582.0 COOLING FAN COOLING FAN
2026-03-08 COSU9505672370 NEWPLUS FURNITURE INTERNATIONAL IN 13429.0 kg 732290.0 TOWER FAN COOLING FAN TOWER FAN COOLING FAN
2026-03-04 COSU9505672280 NEWPLUS FURNITURE INTERNATIONAL IN 7766.0 kg 732290.0 TOWER FAN COOLING FAN
2026-03-02 COSU9505589130 NEWPLUS FURNITURE INTERNATIONAL IN 17975.0 kg 845230.0 ICE MACHINE ICE MACHINE
2026-03-01 COSU9505672480 NEWPLUS FURNITURE INTERNATIONAL IN 13247.0 kg 732290.0 FAN COOLING FAN FAN COOLING FAN
2026-03-01 COSU9505672410 NEWPLUS FURNITURE INTERNATIONAL IN 13440.0 kg 732290.0 FAN FAN
2026-02-28 COSU9505588050 NEWPLUS FURNITURE INTERNATIONAL IN 15552.0 kg 847960.0 AIR CONDITIONER AIR CONDITIONER
2026-02-24 COSU9505591200 NEWPLUS FURNITURE INTERNATIONAL IN 8938.0 kg 847960.0 AIR CONDITIONER
2026-02-24 COSU9505591260 NEWPLUS FURNITURE INTERNATIONAL IN 15552.0 kg 847960.0 AIR CONDITIONER AIR CONDITIONER
2026-02-22 COSU9505672200 NEWPLUS FURNITURE INTERNATIONAL IN 9225.0 kg 841582.0 COOLING FAN COOLING FAN
2026-02-20 COSU9505672140 NEWPLUS FURNITURE INTERNATIONAL IN 10628.0 kg 732290.0 FAN COOLING FAN
2026-02-20 COSU9505672320 NEWPLUS FURNITURE INTERNATIONAL IN 7129.0 kg 842620.0 TOWER FAN
2026-02-20 COSU9505672290 NEWPLUS FURNITURE INTERNATIONAL IN 13440.0 kg 732290.0 FAN FAN
2026-02-17 COSU9505493390 NEWPLUS FURNITURE INTERNATIONAL IN 9225.0 kg 841582.0 COOLING FAN COOLING FAN
2026-02-17 COSU9505494770 NEWPLUS FURNITURE INTERNATIONAL IN 15552.0 kg 847960.0 AIR CONDITIONER AIR CONDITIONER
2026-02-17 COSU9505494880 NEWPLUS FURNITURE INTERNATIONAL IN 16714.0 kg 847960.0 AIR CONDITIONER AIR CONDITIONER
2026-02-17 COSU9505495160 NEWPLUS FURNITURE INTERNATIONAL IN 8995.0 kg 845230.0 ICE MACHINE
2026-02-17 COSU9505494970 NEWPLUS FURNITURE INTERNATIONAL IN 18325.0 kg 845230.0 ICE MACHINE ICE MACHINE
2026-02-17 COSU9505493620 NEWPLUS FURNITURE INTERNATIONAL IN 4664.0 kg 841582.0 COOLING FAN
2026-02-17 COSU9505493430 NEWPLUS FURNITURE INTERNATIONAL IN 12600.0 kg 841582.0 COOLING FAN COOLING FAN
2026-02-17 COSU9505493540 NEWPLUS FURNITURE INTERNATIONAL IN 9328.0 kg 841582.0 COOLING FAN COOLING FAN
2026-02-17 COSU9505551650 NEWPLUS FURNITURE INTERNATIONAL IN 17615.0 kg 841582.0 COOLING FAN WINDOW AIR CONDITIONER
2026-02-17 COSU9505551710 NEWPLUS FURNITURE INTERNATIONAL IN 9328.0 kg 841582.0 COOLING FAN COOLING FAN
2026-02-17 COSU9505672360 NEWPLUS FURNITURE INTERNATIONAL IN 11449.0 kg 841582.0 COOLING FAN COOLING FAN
2026-02-14 COSU9505376860 NEWPLUS FURNITURE INTERNATIONAL IN 10232.0 kg 732290.0 FAN FAN
2026-02-12 COSU9505377340 NEWPLUS FURNITURE INTERNATIONAL IN 13416.0 kg 841510.0 WINDOW AIR CONDITIONER
2026-02-12 COSU9505377420 NEWPLUS FURNITURE INTERNATIONAL IN 5410.0 kg 732290.0 FAN
2026-02-12 COSU9505672190 NEWPLUS FURNITURE INTERNATIONAL IN 13200.0 kg 732290.0 FAN FAN
2026-02-11 COSU9505016080 NEWPLUS FURNITURE INTERNATIONAL IN 12444.0 kg 841582.0 COOLING FAN FAN
2026-02-10 COSU9505586360 NEWPLUS FURNITURE INTERNATIONAL IN 15552.0 kg 847960.0 AIR CONDITIONER AIR CONDITIONER
2026-02-10 COSU9505586340 NEWPLUS FURNITURE INTERNATIONAL IN 15552.0 kg 847960.0 AIR CONDITIONER HEATER AIR CONDITIONER
2026-02-10 COSU6441308110 NEWPLUS FURNITURE INTERNATIONAL IN 8938.0 kg 847960.0 AIR CONDITIONER
2026-02-09 COSU9505490060 NEWPLUS FURNITURE INTERNATIONAL IN 27054.0 kg 841510.0 WINDOW AIR CONDITIONER PORTABLE AIR CONDITIONER
2026-02-09 COSU9505586700 NEWPLUS FURNITURE INTERNATIONAL IN 13200.0 kg 732290.0 FAN FAN
2026-02-09 COSU9505586840 NEWPLUS FURNITURE INTERNATIONAL IN 13200.0 kg 732290.0 FAN FAN
2026-02-09 COSU9505586790 NEWPLUS FURNITURE INTERNATIONAL IN 15642.0 kg 845230.0 COOLING FAN ICE MACHINE
2026-01-30 COSU9505493120 NEWPLUS FURNITURE INTERNATIONAL IN 5724.0 kg 841582.0 COOLING FAN
2026-01-30 COSU9505493230 NEWPLUS FURNITURE INTERNATIONAL IN 12600.0 kg 841582.0 COOLING FAN COOLING FAN
2026-01-30 COSU9505535620 NEWPLUS FURNITURE INTERNATIONAL IN 9225.0 kg 841582.0 COOLING FAN COOLING FAN
2026-01-30 COSU9505535480 NEWPLUS FURNITURE INTERNATIONAL IN 9225.0 kg 841582.0 COOLING FAN COOLING FAN
Contact information Request
to request contact information.
Other address